Home   Weather   Braunau am Inn   Past weeks

Flag for Austria Past Weather in Braunau am Inn, Upper Austria, Austria — Yesterday and Last 2 Weeks

Now
24 °F

Light snow. Low clouds.


Feels Like: N/A
Forecast: 20 / 26 °F
Wind: N/A

Location: Salzburg-Flughafen

Current Time: Jan 16, 2017 at 8:49:01 pm

Latest Report: Jan 16, 2017 at 7:00 pm


Visibility: 5 mi

Pressure: 30.29 "Hg

Humidity: 93%

Dew Point: 22 °F

Location of Braunau am InnLocation

Past Weather in Braunau am Inn — Graph

°F

Braunau am Inn Temperature Yesterday

Maximum temperature yesterday: 31 °F (at 3:00 pm)
Minimum temperature yesterday: 26 °F (at 11:00 pm)
Average temperature yesterday: 28 °F

High & Low Weather Summary for the Past Weeks

 TemperatureHumidityPressure
High42 °F (Jan 12, 1:00 pm)96% (Jan 8, 6:00 pm)30.82 "Hg (Jan 8, 6:00 pm)
Low0 °F (Jan 7, 2:00 am)46% (Jan 13, 12:00 pm)29.38 "Hg (Jan 13, 4:00 am)
Average26 °F84%30.19 "Hg
* Reported Jan 1 7:00 pm — Jan 16 7:00 pm, Braunau am Inn, Weather by CustomWeather, © 2017

Note: Actual official high and low records may vary slightly from our data, if they occured in-between our weather recording intervals... More about our weather records

Advertising

Braunau am Inn Weather History for the Previous 24 Hours

Scroll right to see more
 ConditionsComfort  
Time TempWeatherWind HumidityBarometerVisibility
7:00 pm
Mon, Jan 16
24 °FLight snow. Low clouds.N/A93%30.29 "Hg5 mi
6:00 pm25 °FLight snow. Passing clouds.N/A93%30.28 "Hg3 mi
5:00 pm26 °FHeavy snow. Low clouds.N/A94%30.25 "Hg1 mi
4:00 pm26 °FHeavy snow. Low clouds.5 mph93%30.24 "Hg1 mi
3:00 pm27 °FHeavy snow. Low clouds.N/A89%30.22 "Hg1 mi
2:00 pm27 °FLight snow. Low clouds.N/A84%30.22 "Hg1 mi
1:00 pm25 °FHeavy snow. Low clouds.N/A90%30.23 "Hg1 mi
12:00 pm25 °FLight snow. Overcast.N/A89%30.23 "Hg1 mi
11:00 am24 °FLight snow. Low clouds.N/A91%30.24 "Hg2 mi
10:00 am23 °FSnow showers. Low clouds.3 mph91%30.24 "Hg1 mi
9:00 am23 °FLight snow. Overcast.N/A91%30.23 "Hg3 mi
8:00 am23 °FLight snow. Low clouds.N/A92%30.22 "Hg1 mi
7:00 am23 °FLight snow. Low clouds.5 mph93%30.21 "Hg2 mi
6:00 am24 °FHeavy snow. Low clouds.N/A94%30.20 "Hg1 mi
5:00 am24 °FSnow flurries. Low clouds.3 mph90%30.19 "Hg1 mi
4:00 am25 °FLight snow. Low clouds.N/A89%30.19 "Hg13 mi
3:00 am26 °FLight snow. Low clouds.N/A94%30.20 "Hg5 mi
2:00 am24 °FLight snow. Overcast.3 mph95%30.21 "Hg3 mi
1:00 am26 °FLight snow. Overcast.N/A94%30.20 "Hg3 mi
12:00 am26 °FSnow showers. Low clouds.N/A94%30.22 "Hg2 mi
11:00 pm
Sun, Jan 15
26 °FLight snow. Low clouds.N/A93%30.22 "Hg6 mi
10:00 pm27 °FLight snow. Low clouds.N/A93%30.22 "Hg7 mi
9:00 pm27 °FSnow flurries. Overcast.N/A91%30.22 "Hg6 mi
8:00 pm27 °FOvercast.N/A91%30.22 "Hg13 mi
Weather by CustomWeather, © 2017

See weather overviewHow to use our weather pages